Temp
63 63 64 64 64 64 64 64 64 64 64 64 64 64 64 64 64 64 63 63 63 64 64 63 63 63 63 63 63 64 64 64 64 64 65 65 65 65 65 65 64 64 64 63 62 61 61 60 58 58 57 50
61 62 62 63 63 63 63 63 63 63 63 63 62 62 62 62 62 62 62 62 62 63 62 62 62 61 62 62 63 63 64 64 64 64 64 64 64 64 64 64 64 63 63 62 62 61 60 59 58 57 57 50
58 60 61 61 61 62 62 62 62 62 61 61 60 60 60 60 60 60 60 60 61 61 61 61 61 61 61 61 62 63 64 64 64 64 64 64 64 64 64 63 63 63 62 62 61 60 60 59 58 57 55 49
59 58 60 60 60 60 60 60 60 60 59 59 58 58 58 58 58 58 57 60 59 60 60 60 59 60 60 61 62 62 63 63 63 63 63 63 63 63 63 63 63 62 61 61 60 60 59 58 58 53 49 49
61 59 59 58 58 59 59 59 58 58 58 57 56 56 56 57 54 53 53 56 56 59 57 59 59 59 59 60 61 61 62 62 63 63 63 63 63 62 62 61 61 60 60 59 59 59 58 58 54 50 49 50
61 59 57 57 56 56 56 57 57 55 54 55 52 57 55 53 53 53 53 54 57 56 56 57 59 58 59 60 60 61 61 61 62 62 62 62 62 62 61 61 57 54 57 58 58 57 57 55 51 49 50 50
59 59 58 57 58 58 58 56 55 54 54 53 53 53 53 53 54 54 55 56 57 56 58 55 58 58 58 59 60 59 60 60 60 61 61 61 61 61 61 58 53 52 51 52 57 58 56 52 50 49 50 50
60 59 59 59 59 58 58 57 56 55 55 54 53 54 53 53 53 54 55 58 59 57 54 55 58 58 57 57 58 58 57 58 58 59 60 60 60 59 56 52 52 51 51 52 52 52 51 49 50 50 50 51
58 59 58 58 58 58 57 57 56 55 55 55 54 53 53 53 53 54 55 53 54 53 53 52 53 54 54 52 51 54 51 51 51 53 51 52 54 52 52 51 51 51 52 52 53 52 50 50 50 50 51 51
59 62 58 58 58 58 58 58 57 56 55 55 54 53 53 53 53 53 54 53 52 54 54 53 52 53 53 51 51 53 51 50 51 51 52 52 51 52 52 52 52 52 52 52 51 51 51 51 51 50 50 50
59 58 58 59 58 58 57 58 56 55 55 56 55 54 52 53 51 52 51 52 51 52 54 53 51 51 53 53 53 55 52 51 52 52 51 51 52 52 51 52 51 51 52 51 51 51 51 51 52 52 52 51
58 58 58 58 58 58 58 57 56 56 56 56 56 55 54 54 52 51 50 52 51 52 53 53 53 54 51 51 52 55 55 53 51 52 52 52 51 52 52 52 52 52 52 52 51 51 52 51 52 52 52 52
58 58 58 58 58 57 59 57 56 56 56 55 55 55 54 54 52 51 51 52 52 52 53 52 53 51 51 53 53 54 52 53 52 52 51 52 52 52 52 51 51 50 51 51 51 52 51 51 51 51 51 51
58 58 58 58 58 58 58 57 56 57 55 55 54 53 54 54 53 52 50 51 51 51 51 51 52 52 52 52 51 51 52 52 52 52 51 50 51 51 51 51 52 51 52 52 52 52 51 51 51 51 50 50
59 59 58 58 58 59 57 57 57 55 55 54 54 54 54 54 53 52 51 51 50 50 50 51 52 52 52 52 52 52 52 53 52 51 51 51 51 51 51 51 52 51 52 51 50 50 50 51 51 51 52 51
57 57 57 57 58 57 57 57 56 55 55 54 54 54 54 54 53 52 51 51 52 52 51 51 51 51 51 51 52 52 52 52 52 52 52 51 51 52 52 52 52 52 51 51 52 52 52 52 52 52 51 51
58 58 59 58 59 59 59 58 57 56 56 57 56 54 53 53 54 53 53 51 52 52 52 52 52 52 52 52 52 52 52 52 52 51 51 51 51 50 50 50 50 50 50 50 50 51 51 52 51 52 51 50
56 57 57 57 57 58 58 57 56 55 56 56 55 56 55 55 54 54 54 53 52 52 51 51 51 51 51 52 52 53 53 52 51 50 49 49 49 50 50 49 50 49 49 49 49 49 50 49 49 49 50 50
56 54 56 55 55 55 54 55 54 53 55 54 55 55 53 53 52 52 52 51 51 50 50 50 50 50 51 52 51 51 52 51 51 51 49 48 48 49 49 49 49 49 49 49 49 50 50 50 51 50 51 50
55 55 54 54 54 53 53 52 53 52 53 53 52 53 52 52 51 50 50 50 50 48 49 49 49 49 50 50 50 50 50 50 49 49 49 49 49 47 47 48 48 49 48 49 48 49 49 50 50 50 50 50
55 56 56 55 55 55 54 54 52 52 53 54 53 52 51 50 49 48 48 47 47 47 47 47 48 49 49 49 49 49 49 49 49 49 48 48 48 48 46 46 45 46 47 47 47 48 48 48 48 48 49 49
55 56 56 54 55 55 54 55 54 54 54 53 52 51 48 46 46 45 44 43 43 44 45 45 45 45 46 46 46 46 46 46 46 46 45 44 46 46 45 45 44 45 46 46 46 47 47 48 48 49 49 49
56 56 56 54 55 53 53 54 53 53 52 50 49 47 45 44 43 42 40 40 40 40 41 41 42 41 42 42 42 42 42 42 43 43 43 42 41 42 43 42 42 43 43 42 42 43 45 47 47 49 49 49
53 53 52 52 53 52 52 53 51 51 49 48 46 45 43 41 41 39 37 36 37 38 38 38 37 37 38 38 38 38 37 38 39 40 39 38 38 37 38 40 40 41 40 40 40 41 43 44 44 45 46 46
49 49 49 51 51 49 51 49 48 47 46 45 44 44 41 39 38 36 34 33 33 34 34 33 33 33 33 34 34 34 35 37 36 35 34 34 34 33 32 34 37 38 38 35 34 37 37 38 41 41 42 43
46 46 46 47 47 49 47 46 44 43 43 42 42 42 40 37 36 34 32 31 31 31 31 30 29 29 30 31 31 32 34 33 31 31 30 30 28 31 30 29 33 33 33 29 28 26 28 33 38 41 41 43
43 44 45 46 46 46 46 46 44 43 42 40 39 39 39 36 34 33 30 28 29 29 29 28 27 27 29 29 30 29 29 29 28 28 27 27 26 25 28 28 30 30 31 24 26 27 27 25 26 32 37 32
42 43 43 44 44 44 44 41 41 40 39 37 36 35 37 35 32 31 30 27 27 27 28 26 25 26 27 26 28 27 25 25 25 25 25 26 26 25 21 23 24 29 28 26 24 18 21 20 24 21 24 23
39 39 39 40 40 40 40 39 36 34 33 33 32 32 33 33 31 29 28 27 26 26 26 26 25 25 25 25 25 25 24 23 23 24 25 25 24 23 21 19 23 24 26 25 27 22 17 16 16 17 18 22
36 35 34 33 32 30 31 30 29 27 27 28 28 28 31 31 30 28 27 26 25 25 26 25 24 24 23 23 23 23 22 22 23 22 23 23 22 22 23 21 19 19 24 25 24 24 23 21 15 14 17 19
32 32 31 30 30 29 28 27 27 29 29 28 28 28 28 28 27 26 26 25 25 24 25 24 24 24 23 22 23 22 22 21 21 21 22 22 21 21 21 20 16 17 18 20 21 22 21 21 22 21 18 12
MSLP
1019.61 1019.70 1019.73 1019.78 1019.78 1019.78 1019.82 1019.82 1019.82 1019.82 1019.82 1019.82 1019.78 1019.78 1019.78 1019.82 1019.82 1019.82 1019.85 1019.82 1019.78 1019.70 1019.66 1019.61 1019.58 1019.58 1019.53 1019.49 1019.38 1019.29 1019.22 1019.09 1019.02 1018.90 1018.82 1018.70 1018.61 1018.53 1018.46 1018.38 1018.29 1018.22 1018.17 1018.09 1018.09 1018.05 1018.02 1018.02 1017.97 1017.97 1017.97 1018.02
1019.61 1019.66 1019.70 1019.70 1019.70 1019.73 1019.73 1019.78 1019.78 1019.73 1019.73 1019.73 1019.78 1019.78 1019.78 1019.78 1019.78 1019.82 1019.82 1019.78 1019.70 1019.66 1019.61 1019.58 1019.53 1019.53 1019.49 1019.41 1019.34 1019.22 1019.09 1018.97 1018.90 1018.78 1018.70 1018.58 1018.49 1018.38 1018.29 1018.22 1018.14 1018.05 1017.97 1017.93 1017.90 1017.85 1017.82 1017.78 1017.78 1017.73 1017.70 1017.73
1019.46 1019.49 1019.53 1019.58 1019.61 1019.66 1019.70 1019.70 1019.70 1019.70 1019.70 1019.70 1019.70 1019.73 1019.70 1019.73 1019.73 1019.73 1019.70 1019.66 1019.61 1019.58 1019.53 1019.49 1019.46 1019.41 1019.34 1019.26 1019.17 1019.09 1018.93 1018.85 1018.73 1018.61 1018.53 1018.46 1018.34 1018.22 1018.14 1018.02 1017.93 1017.85 1017.82 1017.73 1017.70 1017.61 1017.58 1017.53 1017.49 1017.46 1017.46 1017.46
1019.14 1019.29 1019.38 1019.46 1019.53 1019.58 1019.61 1019.66 1019.66 1019.66 1019.66 1019.70 1019.70 1019.70 1019.70 1019.70 1019.70 1019.66 1019.66 1019.58 1019.49 1019.46 1019.38 1019.34 1019.29 1019.26 1019.17 1019.09 1018.97 1018.90 1018.78 1018.70 1018.58 1018.46 1018.34 1018.22 1018.09 1018.02 1017.90 1017.82 1017.70 1017.66 1017.58 1017.49 1017.46 1017.38 1017.34 1017.29 1017.26 1017.22 1017.22 1017.17
1018.93 1019.14 1019.29 1019.41 1019.46 1019.49 1019.53 1019.58 1019.58 1019.61 1019.66 1019.66 1019.70 1019.70 1019.70 1019.66 1019.66 1019.66 1019.61 1019.49 1019.38 1019.17 1019.14 1019.09 1019.05 1019.02 1018.97 1018.90 1018.82 1018.70 1018.61 1018.46 1018.34 1018.22 1018.09 1017.97 1017.85 1017.78 1017.66 1017.58 1017.49 1017.41 1017.34 1017.26 1017.17 1017.09 1017.02 1016.97 1016.97 1016.93 1016.93 1016.85
1018.93 1019.05 1019.26 1019.29 1019.29 1019.34 1019.38 1019.38 1019.46 1019.49 1019.53 1019.58 1019.58 1019.53 1019.53 1019.53 1019.53 1019.46 1019.38 1019.26 1019.05 1018.93 1018.82 1018.78 1018.78 1018.73 1018.73 1018.66 1018.53 1018.46 1018.34 1018.22 1018.09 1017.97 1017.82 1017.70 1017.58 1017.49 1017.38 1017.29 1017.26 1017.17 1017.05 1016.93 1016.82 1016.73 1016.61 1016.58 1016.58 1016.58 1016.53 1016.46
1018.85 1018.90 1019.02 1019.05 1019.02 1019.02 1019.05 1019.14 1019.26 1019.34 1019.34 1019.38 1019.34 1019.29 1019.29 1019.29 1019.29 1019.17 1019.05 1018.90 1018.78 1018.70 1018.66 1018.66 1018.61 1018.58 1018.53 1018.46 1018.29 1018.17 1018.09 1017.97 1017.85 1017.70 1017.58 1017.46 1017.29 1017.17 1017.09 1017.02 1017.02 1016.93 1016.85 1016.70 1016.49 1016.34 1016.17 1016.14 1016.17 1016.14 1016.09 1015.97
1018.70 1018.73 1018.73 1018.73 1018.73 1018.82 1018.82 1018.90 1018.97 1019.09 1019.14 1019.14 1019.09 1019.09 1019.09 1019.09 1019.05 1018.93 1018.85 1018.70 1018.58 1018.53 1018.49 1018.49 1018.41 1018.38 1018.34 1018.22 1018.09 1018.02 1017.97 1017.82 1017.70 1017.58 1017.46 1017.26 1017.14 1017.02 1016.93 1016.90 1016.78 1016.70 1016.58 1016.41 1016.22 1016.02 1015.82 1015.82 1015.78 1015.78 1015.66 1015.49
1018.46 1018.49 1018.49 1018.49 1018.53 1018.53 1018.58 1018.66 1018.73 1018.82 1018.85 1018.90 1018.93 1018.93 1018.93 1018.97 1018.93 1018.90 1018.78 1018.70 1018.61 1018.53 1018.49 1018.41 1018.34 1018.26 1018.09 1018.05 1018.02 1017.90 1017.93 1017.78 1017.66 1017.53 1017.41 1017.22 1017.02 1016.90 1016.78 1016.70 1016.53 1016.46 1016.29 1016.05 1015.82 1015.61 1015.49 1015.46 1015.38 1015.29 1015.17 1015.02
1018.34 1018.34 1018.41 1018.46 1018.46 1018.46 1018.49 1018.53 1018.61 1018.66 1018.66 1018.70 1018.73 1018.78 1018.82 1018.85 1018.90 1018.90 1018.82 1018.73 1018.66 1018.53 1018.41 1018.29 1018.17 1018.05 1017.90 1017.85 1017.82 1017.70 1017.66 1017.58 1017.41 1017.26 1017.05 1016.85 1016.70 1016.53 1016.41 1016.29 1016.14 1016.02 1015.90 1015.70 1015.49 1015.29 1015.17 1015.05 1014.97 1014.85 1014.70 1014.58
1018.38 1018.41 1018.38 1018.38 1018.41 1018.46 1018.49 1018.49 1018.58 1018.58 1018.61 1018.61 1018.66 1018.66 1018.73 1018.82 1018.85 1018.90 1018.82 1018.70 1018.58 1018.46 1018.34 1018.17 1018.02 1017.90 1017.78 1017.66 1017.53 1017.38 1017.29 1017.22 1017.09 1016.93 1016.73 1016.58 1016.34 1016.17 1016.09 1015.93 1015.82 1015.66 1015.49 1015.34 1015.22 1015.09 1014.97 1014.90 1014.78 1014.66 1014.49 1014.38
1018.58 1018.53 1018.53 1018.49 1018.46 1018.49 1018.53 1018.58 1018.66 1018.70 1018.70 1018.66 1018.66 1018.66 1018.70 1018.73 1018.82 1018.85 1018.82 1018.73 1018.58 1018.46 1018.29 1018.14 1018.02 1017.85 1017.70 1017.58 1017.41 1017.29 1017.17 1017.02 1016.85 1016.70 1016.49 1016.34 1016.17 1016.02 1015.85 1015.73 1015.53 1015.38 1015.22 1015.09 1015.02 1014.85 1014.73 1014.61 1014.49 1014.38 1014.22 1014.09
1018.58 1018.58 1018.58 1018.58 1018.58 1018.58 1018.58 1018.61 1018.66 1018.70 1018.70 1018.73 1018.73 1018.70 1018.70 1018.73 1018.82 1018.82 1018.85 1018.82 1018.70 1018.53 1018.38 1018.26 1018.05 1017.90 1017.73 1017.61 1017.41 1017.29 1017.14 1016.97 1016.73 1016.58 1016.38 1016.22 1016.02 1015.85 1015.70 1015.53 1015.34 1015.17 1014.97 1014.85 1014.73 1014.58 1014.38 1014.26 1014.14 1013.97 1013.85 1013.70
1018.66 1018.58 1018.61 1018.58 1018.61 1018.61 1018.61 1018.70 1018.70 1018.70 1018.78 1018.82 1018.78 1018.78 1018.78 1018.78 1018.82 1018.85 1018.90 1018.90 1018.82 1018.73 1018.58 1018.41 1018.22 1018.02 1017.82 1017.61 1017.41 1017.26 1017.05 1016.85 1016.61 1016.41 1016.26 1016.05 1015.85 1015.73 1015.53 1015.34 1015.14 1014.97 1014.78 1014.58 1014.41 1014.26 1014.02 1013.85 1013.70 1013.53 1013.41 1013.26
1018.85 1018.82 1018.82 1018.78 1018.73 1018.73 1018.73 1018.70 1018.70 1018.78 1018.82 1018.82 1018.82 1018.78 1018.82 1018.85 1018.90 1018.93 1018.93 1018.90 1018.90 1018.82 1018.70 1018.53 1018.38 1018.17 1017.97 1017.78 1017.58 1017.38 1017.09 1016.82 1016.58 1016.34 1016.14 1015.93 1015.78 1015.61 1015.46 1015.26 1015.09 1014.93 1014.66 1014.46 1014.22 1014.02 1013.78 1013.53 1013.38 1013.17 1012.97 1012.82
1018.93 1018.90 1018.85 1018.82 1018.78 1018.78 1018.73 1018.73 1018.78 1018.82 1018.85 1018.85 1018.85 1018.82 1018.85 1018.85 1018.90 1018.93 1018.97 1018.97 1018.97 1018.93 1018.85 1018.70 1018.49 1018.29 1018.05 1017.82 1017.53 1017.29 1017.02 1016.78 1016.53 1016.29 1016.05 1015.85 1015.70 1015.53 1015.41 1015.17 1015.02 1014.82 1014.58 1014.26 1014.02 1013.78 1013.53 1013.29 1013.05 1012.82 1012.61 1012.41
1019.05 1019.05 1019.09 1019.05 1018.97 1018.93 1018.90 1018.90 1018.90 1018.97 1019.02 1019.02 1018.97 1018.97 1019.02 1019.05 1019.14 1019.17 1019.17 1019.17 1019.17 1019.09 1018.97 1018.82 1018.66 1018.41 1018.22 1017.90 1017.61 1017.34 1017.05 1016.78 1016.49 1016.26 1016.02 1015.82 1015.70 1015.49 1015.34 1015.14 1014.85 1014.66 1014.38 1014.09 1013.82 1013.61 1013.29 1013.05 1012.73 1012.49 1012.29 1012.05
1019.29 1019.29 1019.34 1019.29 1019.26 1019.29 1019.29 1019.34 1019.34 1019.34 1019.34 1019.34 1019.29 1019.34 1019.38 1019.58 1019.66 1019.70 1019.61 1019.58 1019.53 1019.41 1019.29 1019.09 1018.90 1018.66 1018.38 1018.09 1017.85 1017.61 1017.34 1017.02 1016.70 1016.38 1016.09 1015.90 1015.73 1015.53 1015.38 1015.09 1014.82 1014.58 1014.26 1013.97 1013.66 1013.41 1013.09 1012.90 1012.58 1012.34 1012.05 1011.82
1019.53 1019.46 1019.46 1019.49 1019.49 1019.53 1019.58 1019.58 1019.58 1019.58 1019.61 1019.61 1019.61 1019.66 1019.93 1020.05 1020.09 1020.09 1020.14 1020.09 1020.02 1019.85 1019.66 1019.38 1019.14 1018.90 1018.61 1018.34 1018.05 1017.78 1017.53 1017.22 1016.90 1016.58 1016.26 1016.02 1015.82 1015.53 1015.38 1015.09 1014.78 1014.58 1014.22 1013.93 1013.61 1013.34 1013.09 1012.78 1012.53 1012.26 1011.93 1011.70
1019.73 1019.66 1019.58 1019.53 1019.49 1019.53 1019.53 1019.58 1019.61 1019.66 1019.70 1019.78 1019.93 1020.22 1020.41 1020.53 1020.61 1020.73 1020.70 1020.61 1020.49 1020.29 1020.02 1019.78 1019.49 1019.17 1018.90 1018.66 1018.38 1018.09 1017.78 1017.46 1017.14 1016.78 1016.46 1016.17 1015.93 1015.61 1015.34 1015.17 1014.85 1014.61 1014.26 1013.85 1013.53 1013.26 1013.05 1012.78 1012.58 1012.29 1012.02 1011.73
1019.73 1019.66 1019.58 1019.49 1019.46 1019.49 1019.49 1019.61 1019.70 1019.78 1019.97 1020.22 1020.58 1020.73 1020.97 1021.26 1021.41 1021.41 1021.38 1021.41 1021.29 1020.97 1020.66 1020.38 1020.05 1019.70 1019.46 1019.22 1018.93 1018.58 1018.26 1017.90 1017.53 1017.26 1017.02 1016.73 1016.49 1016.26 1015.78 1015.53 1015.26 1014.97 1014.61 1014.17 1013.73 1013.38 1013.05 1012.82 1012.61 1012.38 1012.09 1011.85
1019.97 1019.90 1019.78 1019.70 1019.70 1019.73 1019.85 1020.02 1020.17 1020.38 1020.66 1021.02 1021.29 1021.61 1022.05 1022.26 1022.29 1022.38 1022.49 1022.46 1022.22 1021.85 1021.53 1021.17 1020.85 1020.61 1020.34 1020.02 1019.70 1019.34 1019.02 1018.70 1018.46 1018.17 1017.90 1017.53 1017.14 1016.85 1016.46 1016.02 1015.66 1015.17 1014.73 1014.34 1013.82 1013.41 1013.05 1012.70 1012.41 1012.14 1011.90 1011.66
1020.58 1020.46 1020.41 1020.26 1020.22 1020.22 1020.38 1020.49 1020.73 1021.14 1021.46 1021.97 1022.29 1022.61 1023.02 1023.17 1023.26 1023.41 1023.49 1023.41 1023.09 1022.78 1022.46 1022.09 1021.82 1021.61 1021.34 1021.02 1020.66 1020.26 1019.93 1019.58 1019.22 1018.90 1018.61 1018.34 1018.02 1017.78 1017.49 1017.05 1016.49 1015.97 1015.49 1015.02 1014.53 1014.05 1013.46 1012.93 1012.53 1012.17 1011.85 1011.58
1021.22 1021.17 1021.17 1021.05 1020.93 1020.82 1020.85 1021.14 1021.66 1022.14 1022.53 1022.82 1023.14 1023.41 1023.70 1023.93 1024.06 1024.26 1024.49 1024.38 1024.06 1023.66 1023.34 1023.02 1022.85 1022.70 1022.34 1021.93 1021.53 1021.22 1020.85 1020.46 1020.02 1019.61 1019.41 1019.29 1019.05 1018.61 1018.17 1017.85 1017.26 1016.70 1016.14 1015.49 1014.90 1014.26 1013.66 1013.34 1013.05 1012.58 1012.14 1011.90
1022.34 1022.22 1022.05 1021.73 1021.61 1021.53 1021.85 1022.38 1022.78 1023.14 1023.49 1023.70 1023.97 1024.02 1024.26 1024.54 1024.73 1024.97 1025.26 1025.18 1024.90 1024.57 1024.38 1024.26 1024.09 1023.73 1023.38 1023.02 1022.66 1022.26 1021.78 1021.26 1021.14 1021.22 1021.09 1020.78 1020.46 1019.93 1019.41 1018.73 1018.17 1017.70 1017.14 1016.41 1015.29 1014.85 1014.49 1013.85 1013.38 1012.93 1012.38 1011.97
1023.61 1023.66 1023.61 1023.26 1023.09 1022.66 1023.14 1023.41 1023.78 1024.09 1024.30 1024.61 1024.78 1024.73 1024.81 1025.21 1025.45 1025.66 1026.02 1025.97 1025.66 1025.45 1025.30 1025.14 1024.90 1024.57 1024.26 1023.90 1023.58 1023.17 1022.70 1022.49 1022.53 1022.29 1022.09 1021.78 1021.29 1020.97 1020.61 1019.93 1019.29 1019.09 1018.22 1017.61 1017.29 1016.66 1014.85 1013.78 1013.14 1012.70 1012.34 1012.02
1024.57 1024.49 1024.21 1023.93 1023.90 1023.70 1023.93 1024.38 1024.73 1024.94 1025.26 1025.45 1025.61 1025.57 1025.49 1025.85 1026.09 1026.26 1026.49 1026.61 1026.42 1026.18 1026.06 1025.97 1025.73 1025.42 1025.06 1024.81 1024.38 1023.97 1023.73 1023.53 1023.41 1023.22 1022.97 1022.66 1022.29 1021.70 1021.41 1021.02 1020.58 1020.09 1019.78 1019.53 1018.73 1017.90 1016.22 1015.34 1014.02 1012.90 1012.49 1013.82
1025.42 1025.30 1025.06 1024.66 1024.66 1024.57 1024.57 1025.26 1025.54 1025.66 1025.85 1026.06 1026.18 1026.14 1026.14 1026.45 1026.78 1026.94 1027.14 1027.33 1027.21 1027.02 1026.81 1026.69 1026.49 1026.26 1025.90 1025.66 1025.26 1025.02 1024.78 1024.49 1024.30 1023.97 1023.66 1023.26 1022.97 1022.70 1022.26 1021.73 1021.49 1021.05 1020.85 1020.66 1019.66 1018.97 1018.49 1017.61 1016.02 1015.05 1014.46 1016.26
1026.26 1026.02 1025.73 1025.66 1025.61 1025.57 1025.49 1025.66 1026.14 1026.26 1026.42 1026.73 1027.09 1027.14 1026.90 1027.09 1027.54 1027.69 1027.73 1027.90 1027.85 1027.66 1027.38 1027.30 1027.14 1026.85 1026.61 1026.42 1026.09 1025.85 1025.69 1025.49 1025.26 1024.94 1024.54 1024.09 1023.85 1023.46 1023.14 1022.78 1022.05 1021.97 1021.61 1021.38 1020.97 1020.97 1020.02 1018.70 1017.93 1017.93 1017.97 1016.61
1027.18 1027.06 1026.97 1026.66 1026.38 1026.45 1026.57 1026.85 1027.18 1027.57 1027.81 1027.81 1027.94 1028.09 1028.02 1027.90 1028.09 1028.30 1028.33 1028.33 1028.38 1028.18 1027.90 1027.81 1027.69 1027.45 1027.26 1027.02 1026.73 1026.57 1026.49 1026.30 1025.94 1025.49 1025.02 1024.97 1024.69 1024.26 1024.02 1023.66 1023.34 1022.82 1022.34 1021.93 1021.97 1021.66 1021.90 1021.82 1021.09 1019.66 1018.38 1017.82
1028.26 1028.09 1028.18 1028.26 1028.33 1028.57 1028.69 1028.81 1028.94 1029.18 1029.14 1029.09 1029.14 1029.06 1028.85 1028.78 1028.81 1028.90 1028.90 1028.90 1028.94 1028.78 1028.54 1028.42 1028.21 1028.02 1027.85 1027.69 1027.38 1027.21 1027.02 1026.73 1026.49 1026.14 1025.78 1025.69 1025.45 1025.06 1024.73 1024.30 1024.21 1023.58 1023.02 1022.93 1022.73 1022.29 1022.46 1021.70 1021.17 1020.66 1019.78 1019.34
Wind_Speed
3 4 4 5 6 7 7 8 8 9 9 10 10 10 11 11 11 11 11 11 12 12 12 12 12 12 12 13 13 13 13 13 14 14 14 15 15 15 15 15 15 15 15 15 15 14 14 14 13 13 12 5
4 5 6 6 7 7 8 8 8 9 9 9 9 9 10 10 11 11 12 12 13 13 13 13 12 12 13 13 14 14 15 14 15 15 15 15 15 16 16 16 16 16 16 16 15 15 15 15 15 13 13 5
6 9 8 8 8 8 9 9 9 9 9 9 8 8 8 8 9 10 12 13 14 14 14 13 14 13 13 14 15 15 16 16 16 16 16 16 16 16 17 17 17 17 17 16 16 16 16 16 15 16 10 6
6 8 10 9 8 8 9 9 9 9 9 8 8 8 8 9 8 9 9 14 12 15 16 16 14 14 14 14 15 15 16 16 16 17 17 17 17 17 17 17 18 17 17 17 17 17 17 16 16 9 6 7
1 6 9 7 8 9 10 10 10 9 8 7 7 7 8 9 7 6 6 8 7 12 10 13 15 15 15 16 16 17 17 17 17 17 17 18 18 18 18 17 18 18 17 18 18 18 17 18 10 7 7 8
1 2 6 5 5 6 7 8 9 6 5 6 5 8 7 5 5 6 6 7 9 8 8 9 14 13 14 15 16 16 17 17 18 18 18 19 19 19 18 19 10 8 12 18 18 18 19 13 8 7 8 8
3 4 5 5 6 5 8 7 7 5 5 5 6 5 4 5 6 6 6 6 6 3 3 3 5 8 12 15 16 16 17 17 18 19 19 20 19 19 20 12 7 7 7 8 16 17 13 9 8 8 9 9
5 4 4 5 5 6 5 6 5 5 5 4 4 4 4 4 4 5 5 6 9 6 5 6 10 13 14 14 15 16 13 15 16 20 20 20 21 15 8 8 8 8 8 8 8 9 8 7 8 9 9 9
3 4 4 4 4 3 3 3 3 5 5 5 5 4 4 4 4 4 5 5 5 5 4 5 6 7 7 7 7 9 8 9 8 9 8 9 11 8 9 8 9 8 8 8 8 8 6 8 9 9 9 9
4 5 3 3 3 3 3 2 2 3 3 3 4 4 4 4 4 5 5 5 5 6 6 7 6 7 5 4 6 7 7 7 7 7 8 8 8 8 8 9 9 9 9 9 7 7 6 7 6 7 7 7
3 3 3 3 3 3 2 2 3 3 3 4 4 3 3 4 4 4 5 5 5 5 6 6 6 6 5 6 6 6 5 6 7 7 7 7 7 7 6 6 6 7 7 6 7 7 7 7 8 8 8 7
3 3 3 3 3 2 2 3 3 4 4 3 1 2 3 2 2 3 4 5 5 6 5 5 5 5 6 6 7 7 7 7 7 7 7 6 6 7 6 7 7 7 7 7 7 8 9 9 9 9 8 8
2 3 3 3 3 2 3 1 2 2 2 3 3 3 2 2 3 3 4 5 6 6 6 6 6 6 7 6 7 6 7 7 7 7 7 7 7 7 7 7 7 7 7 7 7 9 9 9 9 9 9 9
4 3 2 2 3 3 2 3 3 2 2 3 3 4 3 2 2 3 4 4 5 6 7 7 7 7 7 7 7 7 7 7 7 7 7 6 7 7 7 7 7 7 8 8 8 8 9 9 9 8 8 9
4 5 4 5 5 5 4 3 2 3 3 3 3 3 3 3 4 4 4 4 5 5 6 6 7 7 7 7 7 7 7 7 7 7 7 7 7 7 7 7 7 8 9 8 8 7 8 9 8 9 9 9
3 4 4 4 3 4 3 3 3 3 3 4 4 4 3 2 3 3 4 4 5 6 7 7 7 7 7 7 7 7 7 7 7 7 7 7 7 7 8 10 9 9 9 10 10 10 11 10 10 10 9 9
4 5 6 7 7 6 6 6 5 5 6 6 5 5 5 5 6 6 6 6 7 7 7 7 8 8 8 8 8 7 8 9 8 7 7 7 6 7 7 8 8 8 9 10 10 10 11 10 11 10 9 8
5 5 5 5 6 6 7 7 7 7 6 6 7 7 8 10 10 10 9 9 9 8 8 8 8 8 8 8 9 10 10 10 8 8 7 7 7 8 8 9 9 8 9 8 8 8 8 7 8 8 9 9
5 4 4 5 6 5 5 4 5 6 6 6 6 7 9 10 9 9 10 10 9 9 8 8 8 8 8 9 9 9 8 9 9 9 8 7 8 8 8 8 9 9 10 10 10 10 9 9 8 8 9 8
4 4 4 3 2 2 2 3 3 3 4 4 7 9 9 10 8 10 11 11 10 9 9 9 9 8 9 11 10 10 10 9 9 9 9 8 8 9 9 9 10 9 10 10 11 10 9 9 9 9 9 9
2 1 0 0 0 1 0 1 3 5 8 10 9 9 9 12 13 13 14 15 15 12 11 11 10 10 12 12 12 11 11 11 10 11 11 12 12 12 12 11 12 12 11 12 12 11 11 10 11 11 10 10
7 7 7 6 6 7 8 7 8 9 9 10 11 11 13 15 14 15 16 16 15 12 12 12 12 13 14 14 13 12 12 12 13 13 13 14 13 13 13 12 12 13 12 11 12 12 12 11 10 9 10 10
8 9 8 7 8 7 7 8 9 10 11 12 12 13 15 14 14 14 16 16 15 13 13 12 13 13 15 13 13 12 12 13 13 13 13 14 14 13 12 13 13 14 14 14 13 14 15 14 13 11 10 9
8 8 8 8 8 7 7 9 11 13 13 12 13 12 13 13 13 14 16 17 15 14 14 13 14 15 15 14 13 13 13 12 12 15 16 15 16 16 14 12 12 13 14 15 15 15 14 13 14 14 13 13
11 12 12 9 8 6 10 12 13 13 12 12 12 12 12 14 13 15 16 16 15 15 14 14 14 14 14 14 14 13 13 14 17 17 16 15 14 16 16 13 13 15 16 15 14 13 13 13 13 14 15 14
11 11 10 9 11 10 12 12 12 11 12 12 12 13 13 13 14 14 15 15 14 14 15 14 13 14 14 14 13 13 14 16 16 17 15 14 13 12 14 12 15 14 16 11 13 16 16 12 8 9 10 11
12 11 12 11 11 11 9 11 10 10 11 12 13 13 13 14 14 14 14 16 15 13 14 15 14 14 13 14 14 14 14 14 15 14 15 16 13 14 11 11 12 15 14 12 14 12 12 11 16 8 4 11
13 13 12 12 12 11 11 10 10 10 11 12 14 14 13 13 14 15 13 15 15 13 14 15 14 13 13 14 14 13 14 15 15 15 15 15 15 15 14 12 12 13 14 12 14 11 10 12 9 14 7 14
12 12 11 10 9 9 9 10 11 11 12 13 12 11 12 14 14 15 14 14 16 15 14 15 14 13 13 13 14 13 13 14 15 15 14 16 15 15 14 14 11 12 13 13 12 10 10 8 7 7 13 17
12 13 13 13 13 14 14 13 14 15 14 13 14 13 12 13 15 15 14 14 16 16 15 15 15 14 13 13 12 12 12 12 13 15 14 15 14 14 16 14 12 11 11 12 13 11 9 7 8 12 14 12
11 12 13 13 12 11 11 10 10 10 11 10 11 11 13 12 12 14 14 15 15 16 15 15 14 15 14 13 12 12 12 12 14 12 13 13 14 14 13 13 12 13 12 10 10 9 12 12 11 12 14 11
Wind_Direction
195 210 228 243 250 256 261 265 268 269 271 273 276 276 276 276 278 279 280 280 280 279 278 277 275 274 275 276 276 274 274 273 273 274 275 277 278 278 279 280 280 279 277 276 274 273 272 267 263 263 262 245
190 212 222 237 243 248 254 259 260 264 266 269 271 273 276 277 276 277 278 280 280 277 276 274 272 271 271 272 273 272 272 273 273 273 274 275 276 276 277 278 278 278 277 274 273 270 268 266 262 259 257 245
195 198 215 219 232 242 246 249 253 255 257 261 264 268 275 275 270 272 273 274 274 273 271 268 265 265 264 266 268 270 271 272 273 273 273 274 274 274 274 275 276 275 274 273 270 268 265 263 261 258 255 245
174 200 201 209 221 230 239 244 248 249 253 254 257 259 259 261 264 269 268 268 266 264 260 258 257 257 258 261 264 267 268 270 271 271 271 272 272 272 273 273 273 273 271 269 267 265 263 260 258 254 243 243
179 171 194 204 215 224 231 236 239 245 248 250 255 256 255 255 260 257 260 262 259 251 246 246 250 250 252 258 264 265 267 268 268 268 268 268 269 269 270 269 268 268 266 264 263 262 260 256 250 240 239 239
182 135 186 205 210 217 225 229 233 236 235 241 241 243 237 240 239 238 236 239 242 245 234 234 236 237 244 251 256 259 262 263 265 265 265 265 266 266 266 265 263 259 260 261 260 256 252 247 239 234 236 237
187 199 190 211 220 219 205 214 214 221 224 224 229 230 223 215 225 231 234 238 246 241 290 281 264 240 242 250 253 255 257 260 262 263 263 264 265 265 264 263 255 251 251 253 257 259 245 236 230 232 233 237
191 204 219 223 208 206 209 207 197 201 219 224 228 224 224 238 254 260 263 268 272 266 262 262 258 256 250 243 246 252 255 262 265 264 264 263 263 264 261 256 254 251 250 251 250 245 234 224 226 228 233 234
212 217 218 217 220 220 214 220 203 201 205 214 225 234 230 240 254 269 276 280 278 273 259 251 247 248 245 246 248 244 248 252 255 257 252 254 257 249 249 247 247 245 248 247 245 237 220 219 223 229 231 231
227 212 225 245 245 231 219 222 235 243 246 235 218 212 222 237 255 264 267 263 263 262 255 261 264 263 260 233 231 233 237 240 238 242 241 244 239 237 235 235 237 238 239 243 242 245 248 244 240 239 240 243
254 262 240 226 233 250 261 219 233 237 228 232 248 230 203 213 251 272 274 273 265 260 258 260 259 262 262 268 268 262 246 236 229 232 242 244 247 247 245 244 241 240 244 249 253 254 256 258 259 260 259 257
285 292 285 280 291 286 261 264 290 302 298 289 277 262 246 226 243 272 291 291 293 289 291 284 281 277 280 276 272 275 274 277 276 273 267 264 264 263 261 261 259 258 255 255 253 258 256 254 254 252 252 252
232 239 276 298 299 283 279 266 251 257 283 311 292 287 269 235 267 286 293 298 298 303 298 296 297 294 288 284 282 281 278 273 274 270 267 265 264 261 261 260 260 259 255 251 250 249 252 249 248 248 247 246
325 315 306 291 282 285 317 310 308 326 325 297 312 315 312 299 268 268 278 294 304 313 308 307 305 301 293 287 282 279 276 269 268 269 270 272 273 273 271 270 267 267 266 260 256 253 254 249 247 244 242 244
342 342 340 340 341 339 334 325 347 348 331 323 319 308 334 349 339 323 316 309 305 308 308 308 305 303 303 304 303 300 292 288 281 276 271 270 272 276 280 278 280 279 277 273 267 261 260 259 256 253 251 251
338 339 337 337 338 330 322 354 355 346 332 319 324 337 351 347 326 328 326 328 326 329 324 316 313 307 306 297 295 290 287 288 288 285 284 284 286 285 283 281 276 270 270 270 266 267 266 266 262 257 253 252
359 1 359 357 351 349 357 355 2 358 350 347 348 360 7 1 360 355 354 353 348 335 325 324 323 318 315 312 309 306 302 300 294 292 289 287 285 282 278 277 274 269 264 265 265 262 262 262 261 259 255 253
10 7 0 358 358 4 12 5 2 3 0 1 2 12 17 22 18 9 5 1 354 346 340 332 325 325 322 324 329 329 325 318 314 306 304 300 303 297 296 293 291 289 282 274 271 268 267 263 263 261 258 257
9 6 11 9 13 9 22 3 5 4 13 11 11 18 33 23 16 8 11 5 356 347 337 333 332 329 327 326 327 322 321 319 318 314 309 310 305 300 297 294 292 292 291 293 294 294 294 291 289 282 276 273
6 5 8 9 16 26 21 24 13 29 24 24 31 36 28 20 9 19 12 2 354 345 343 339 334 331 335 339 336 332 327 326 321 319 316 312 310 309 309 312 310 304 297 295 290 289 291 292 296 294 294 288
353 335 290 255 207 113 46 33 31 33 31 38 39 32 29 20 24 16 14 10 3 353 351 348 344 346 349 348 342 338 338 335 336 338 338 338 338 333 324 323 317 315 314 311 307 305 300 298 297 293 293 296
4 5 15 14 22 32 35 34 31 39 38 37 34 30 33 27 22 20 17 8 2 356 355 352 353 353 352 349 347 344 345 344 346 344 342 336 336 336 332 327 324 319 315 311 308 307 302 297 291 292 291 285
11 9 7 11 16 28 38 33 41 42 42 42 35 36 35 29 24 22 16 8 2 3 359 358 358 355 354 351 347 346 346 343 341 342 340 339 340 340 336 332 330 328 327 322 316 312 308 305 304 302 298 301
8 13 16 4 12 13 33 38 45 41 38 38 34 36 38 31 27 27 19 10 4 5 3 3 3 357 356 353 351 351 346 345 342 346 350 350 345 341 339 336 330 331 328 319 313 310 313 315 311 306 308 308
3 11 5 0 13 4 35 37 40 40 35 32 31 27 43 33 29 31 22 12 8 9 10 9 2 360 358 357 356 351 347 350 0 5 358 353 350 346 342 338 343 340 337 327 319 321 309 304 302 289 282 284
17 14 7 1 16 13 45 35 34 33 33 30 26 22 38 38 31 33 26 14 11 14 14 9 5 3 360 360 357 354 354 6 2 1 359 354 348 351 344 338 345 349 340 337 337 332 322 307 301 312 316 321
19 10 8 16 18 19 44 44 39 39 35 32 27 21 30 40 32 28 29 17 13 12 13 11 6 4 2 1 360 1 2 1 3 360 357 356 353 345 349 344 348 345 354 337 336 324 314 328 322 312 288 2
17 15 12 17 22 20 40 38 31 33 34 32 27 22 22 42 32 26 28 22 15 13 14 12 7 4 4 3 2 5 1 1 1 359 357 355 359 354 344 350 345 353 356 350 340 342 345 319 322 322 11 341
13 18 22 21 28 35 33 39 29 24 24 24 23 18 18 33 35 27 26 24 17 13 13 13 9 8 6 5 7 7 5 4 2 359 356 360 360 357 351 343 345 353 349 353 354 351 340 332 339 330 325 323
15 25 23 20 21 19 20 21 20 18 12 13 14 11 11 24 29 26 24 23 18 14 14 14 11 11 8 6 9 8 5 4 3 357 360 7 356 356 1 348 350 344 348 6 351 0 356 330 313 325 321 334
19 28 29 29 32 33 27 26 24 18 16 16 15 9 14 18 24 23 22 20 19 14 13 14 11 11 10 8 5 9 2 5 2 350 8 1 0 356 354 351 351 347 353 358 347 2 347 332 338 329 336 332